EW2192 Weather Reports


time (UTC)temp
F
wind
direction
speed
knots
gust
knots
rain 1hr
in
rain 24hr
in
rain mn
in
humidity
%
barometer
mb
20260906161539 75 5 2.6 5.2 0.00 0.00 0.00 76 1017.6
20260906160005 74 5 3.5 7.0 0.00 0.00 0.00 79 1017.5
20260906154557 73 5 0.9 5.2 0.00 0.00 0.00 82 1017.4
20260906153011 72 5 1.7 7.0 0.00 0.00 0.00 84 1017.5
20260906151557 71 5 1.7 8.7 0.00 0.00 0.00 86 1017.4
20260906150022 69 5 1.7 7.8 0.00 0.00 0.00 88 1017.2
20260906144610 69 5 1.7 10.4 0.00 0.00 0.00 90 1017.2
20260906143026 68 5 1.7 7.0 0.00 0.00 0.00 91 1017.3
20260906141623 67 5 1.7 7.0 0.00 0.00 0.00 92 1017.2
20260906140048 67 5 1.7 7.8 0.00 0.00 0.00 92 1017.3
20260906134531 67 5 2.6 7.8 0.00 0.00 0.00 93 1017.3
20260906133120 67 5 0.0 4.3 0.00 0.00 0.00 93 1017.2
20260906131515 67 5 1.7 4.3 0.00 0.00 0.00 93 1017.1
20260906130115 66 5 0.0 3.5 0.00 0.00 0.00 94 1017.0
20260906124534 66 5 0.0 4.3 0.00 0.00 0.00 94 1017.0
20260906123002 65 5 0.9 3.5 0.00 0.00 0.00 94 1017.0
20260906121551 65 5 0.0 0.9 0.00 0.00 0.00 94 1016.8
20260906120016 65 5 0.0 1.7 0.00 0.00 0.00 94 1016.8
20260906114611 65 5 0.0 0.9 0.00 0.00 0.00 93 1016.7
20260906113031 65 5 0.0 2.6 0.00 0.00 0.00 93 1016.4
20260906111624 65 5 0.0 2.6 0.00 0.00 0.00 93 1016.2
20260906110044 65 5 0.0 2.6 0.00 0.00 0.00 93 1016.1
20260906104508 66 5 0.0 0.9 0.00 0.00 0.00 93 1016.1
20260906103112 66 5 0.0 1.7 0.00 0.00 0.00 93 1016.1
20260906101531 66 5 0.0 1.7 0.00 0.00 0.00 93 1015.8
20260906100113 66 5 0.0 0.9 0.00 0.00 0.00 92 1015.5
20260906094538 66 5 0.0 0.9 0.00 0.00 0.00 92 1015.5
20260906093008 66 5 0.0 0.9 0.00 0.00 0.00 92 1015.5
20260906091556 67 5 0.0 3.5 0.00 0.00 0.00 92 1015.6
20260906090027 67 5 0.0 1.7 0.00 0.00 0.00 92 1015.6
20260906084618 67 5 0.0 0.0 0.00 0.00 0.00 92 1015.6
20260906083038 67 5 0.0 1.7 0.00 0.00 0.00 92 1015.3
20260906081629 67 5 0.0 3.5 0.00 0.00 0.00 92 1015.2
20260906080047 67 5 0.0 0.9 0.00 0.00 0.00 92 1015.5
20260906074508 67 5 0.0 2.6 0.00 0.00 0.00 92 1015.4
20260906073106 67 5 0.0 2.6 0.00 0.00 0.00 92 1015.5
20260906071526 67 5 0.0 2.6 0.00 0.00 0.00 91 1015.5
20260906070120 67 5 0.0 0.9 0.00 0.00 0.00 91 1015.8
20260906064538 67 5 0.0 0.9 0.00 0.00 0.00 91 1015.8
20260906063008 67 5 0.0 1.7 0.00 0.00 0.00 91 1016.0
20260906061605 67 5 0.0 0.9 0.00 0.00 0.00 90 1015.9
20260906060017 68 5 0.0 0.9 0.00 0.00 0.00 90 1015.8
20260906054615 68 5 0.0 0.9 0.00 0.00 0.00 90 1015.9
20260906053039 68 5 0.0 0.0 0.00 0.00 0.00 90 1015.9
20260906051627 68 5 0.0 0.0 0.00 0.00 0.00 90 1015.8
20260906050050 68 5 0.0 0.0 0.00 0.00 0.00 90 1015.9
20260906044521 68 5 0.0 0.0 0.00 0.00 0.00 90 1015.8
20260906043115 68 5 0.0 0.0 0.00 0.00 0.00 90 1015.8
20260906041540 68 5 0.0 0.0 0.00 0.00 0.00 89 1015.8
20260906040007 68 5 0.0 0.0 0.00 0.00 0.00 89 1015.7
20260906034605 68 5 0.0 0.0 0.00 0.00 0.00 89 1015.6
20260906033023 68 5 0.0 0.0 0.00 0.00 0.00 88 1015.8
20260906031625 68 5 0.0 0.0 0.00 0.00 0.00 88 1015.9
20260906030043 69 5 0.0 0.9 0.00 0.00 0.00 87 1016.2
20260906024502 69 5 0.0 0.9 0.00 0.00 0.00 86 1016.0
20260906023057 70 5 0.0 0.0 0.00 0.00 0.00 85 1015.9
20260906021521 71 5 0.0 1.7 0.00 0.00 0.00 83 1015.6
20260906020117 72 5 0.0 0.9 0.00 0.00 0.00 81 1015.6
20260906014541 73 5 0.0 0.0 0.00 0.00 0.00 79 1014.4
20260906013120 74 5 0.0 0.9 0.00 0.00 0.00 77 1013.8
20260906011538 75 5 0.0 0.9 0.00 0.00 0.00 75 1013.5
20260906010133 76 5 0.0 2.6 0.00 0.00 0.00 74 1013.2
20260906004547 76 5 0.9 2.6 0.00 0.00 0.00 73 1013.1
20260906003003 77 5 0.9 3.5 0.00 0.00 0.00 72 1012.8
20260906001600 78 5 0.9 2.6 0.00 0.00 0.00 71 1012.7
20260906000027 79 5 0.0 4.3 0.00 0.00 0.00 69 1012.8
20260905234619 80 5 0.0 1.7 0.00 0.00 0.00 67 1013.0
20260905233043 80 5 0.9 4.3 0.00 0.00 0.00 65 1013.1
20260905231635 81 5 0.9 3.5 0.00 0.00 0.00 65 1013.1
20260905230122 81 5 0.9 2.6 0.00 0.00 0.00 65 1013.3
20260905224518 81 5 0.9 2.6 0.00 0.00 0.00 65 1013.3
20260905223110 81 5 0.9 3.5 0.00 0.00 0.00 65 1013.5
20260905221537 82 5 0.9 5.2 0.00 0.00 0.00 65 1013.2
20260905220128 82 5 0.0 2.6 0.00 0.00 0.00 65 1013.4
20260905214556 82 5 0.0 4.3 0.00 0.00 0.00 65 1013.4
20260905213012 82 5 0.9 3.5 0.00 0.00 0.00 65 1013.8
20260905211612 82 5 0.0 3.5 0.00 0.00 0.00 65 1013.9
20260905210037 82 5 0.0 3.5 0.00 0.00 0.00 64 1014.1
20260905204505 82 5 0.0 2.6 0.00 0.00 0.00 65 1014.4
20260905203101 82 5 0.9 3.5 0.00 0.00 0.00 64 1014.6
20260905201518 83 5 0.0 1.7 0.00 0.00 0.00 63 1014.8
20260905200112 83 5 0.9 4.3 0.00 0.00 0.00 62 1014.9
20260905194530 83 5 0.0 1.7 0.00 0.00 0.00 63 1015.0
20260905193126 83 5 0.9 2.6 0.00 0.00 0.00 63 1014.9
20260905191554 82 5 0.0 2.6 0.00 0.00 0.00 65 1014.9
20260905190016 82 5 0.9 3.5 0.00 0.00 0.00 65 1015.1
20260905184610 82 5 0.9 3.5 0.00 0.00 0.00 66 1015.1
20260905183024 82 5 0.9 4.3 0.00 0.00 0.00 69 1015.0
20260905181622 80 5 0.9 5.2 0.00 0.00 0.00 69 1015.0
20260905180034 79 5 0.9 3.5 0.00 0.00 0.00 72 1015.2
20260905174625 77 5 0.9 2.6 0.00 0.00 0.00 76 1015.5
20260905173046 76 5 0.0 2.6 0.00 0.00 0.00 80 1015.4
20260905171509 75 5 0.0 1.7 0.00 0.00 0.00 80 1015.8
20260905164526 74 5 0.0 2.6 0.00 0.00 0.00 81 1016.0
20260905163115 74 5 0.0 2.6 0.00 0.00 0.00 82 1016.0